Lid_Strength_Index
3 4 4 4 4 5 6 9 10 4 5 11 11 12 10 8 8 7 8 9 9 11 11 12 11 11 9 6 7 11 10 13 16 13 9 8 10 12 13 17 18 16 17 17
4 4 4 4 4 4 7 9 9 5 6 13 14 11 9 8 8 9 9 10 9 9 12 13 10 9 6 6 8 10 10 14 17 15 13 10 11 11 11 12 13 17 18 17
6 5 5 5 5 5 8 9 11 10 9 10 12 12 11 10 7 8 8 9 9 10 12 10 11 10 7 6 7 6 8 13 15 18 14 13 14 12 11 12 16 15 15 13
6 6 6 6 5 5 8 10 12 11 14 12 12 12 11 11 10 9 9 10 10 11 14 12 12 10 9 7 6 8 10 14 13 12 12 11 12 12 12 13 12 16 13 14
7 7 6 6 6 6 10 13 13 11 12 11 12 11 12 12 10 11 11 12 10 11 13 12 13 10 10 11 8 10 10 14 13 14 11 11 13 11 11 11 12 13 13 13
7 7 7 7 7 7 11 11 10 11 12 12 13 14 12 11 10 10 9 11 11 11 10 8 9 8 8 8 10 10 11 13 15 17 12 13 16 13 13 12 11 12 15 12
7 7 7 7 7 8 12 11 11 13 15 12 13 11 11 11 11 12 10 10 12 8 6 7 8 8 8 8 9 9 12 13 14 16 15 20 13 10 10 11 10 10 10 10
7 7 7 8 7 7 12 11 12 12 16 12 12 11 12 11 10 11 11 9 9 8 9 11 13 12 12 10 9 10 9 12 15 17 18 14 13 11 12 13 13 9 10 9
7 7 7 8 7 8 12 12 11 12 12 15 11 12 12 14 14 13 10 8 8 9 10 12 16 17 13 15 12 9 10 10 14 16 19 22 13 10 8 9 16 9 9 9
8 7 7 7 8 8 10 12 11 13 14 12 12 14 14 12 14 15 11 10 10 9 11 13 15 15 11 16 15 15 14 14 16 16 17 15 10 9 8 16 14 9 9 9
8 8 8 7 8 8 9 12 11 13 13 12 10 10 12 12 13 14 11 10 11 12 12 13 13 14 13 13 12 13 14 16 16 15 17 19 8 9 13 10 8 8 8 7
8 8 8 8 8 8 8 12 11 10 12 12 9 9 9 9 9 10 9 9 9 9 11 11 11 13 12 13 16 10 15 12 14 14 14 9 8 8 7 8 8 7 7 8
8 8 8 8 8 8 8 11 11 12 12 12 12 12 9 8 7 7 10 10 8 9 7 11 10 13 12 15 13 12 10 8 12 12 10 9 8 6 7 6 7 7 8 9
8 8 8 8 8 7 7 11 11 12 12 15 13 8 9 7 7 7 5 6 6 6 6 9 10 12 10 12 11 11 10 9 10 11 9 8 7 7 6 6 6 7 8 9
8 8 8 8 7 7 8 10 10 10 12 14 13 10 9 8 8 7 5 6 6 7 8 9 10 8 10 11 11 12 9 10 12 13 8 9 8 6 6 7 7 7 9 8
8 8 8 8 8 7 11 14 8 8 8 12 14 12 10 8 7 6 6 6 7 6 8 8 9 9 9 12 13 9 8 7 6 8 6 6 6 5 5 6 8 8 8 8
8 8 8 8 8 10 13 14 9 7 8 11 14 14 10 7 5 5 6 6 7 6 7 8 8 9 9 10 13 9 8 7 6 5 6 7 6 8 7 8 8 8 8 7
8 8 8 8 8 8 10 9 7 7 9 9 14 15 12 7 7 8 5 7 6 7 8 8 9 8 9 12 10 8 6 6 6 6 6 7 7 8 8 8 9 9 9 8
8 8 8 9 11 11 10 4 5 6 8 12 12 13 15 8 8 7 6 6 10 7 9 9 9 10 13 10 9 7 7 7 6 6 6 8 8 9 9 8 10 10 9 9
7 9 11 11 9 5 5 7 9 9 9 10 12 9 11 9 9 11 10 8 10 12 10 7 10 11 8 7 6 6 6 5 7 9 9 9 9 9 9 10 10 9 10 9
11 14 15 13 9 11 12 13 11 11 13 11 11 9 9 7 10 10 10 12 10 13 11 11 12 12 9 6 6 5 5 6 7 7 7 8 9 9 10 10 9 9 9 10
12 12 11 12 12 13 14 14 10 11 12 10 10 9 7 8 5 9 8 11 10 14 8 12 14 10 7 6 6 5 5 7 7 7 7 7 8 9 9 10 10 9 10 10
10 13 13 14 13 18 15 15 14 14 11 9 10 11 9 7 7 9 9 12 13 8 12 14 11 9 7 7 5 5 4 6 6 7 6 7 9 8 9 10 10 11 10 11
13 13 19 15 15 14 13 13 13 12 11 12 12 11 10 8 9 9 12 10 10 14 15 14 10 10 9 7 5 5 5 6 6 6 6 7 9 9 9 10 10 11 13 12
13 14 19 15 12 13 13 13 13 12 11 12 13 12 9 9 10 9 10 12 14 13 13 12 11 10 7 6 5 5 5 6 7 6 6 7 8 9 10 10 11 11 12 13
13 13 15 14 14 14 14 13 13 11 11 10 9 9 10 11 10 12 13 13 15 13 12 11 10 9 6 5 5 5 4 5 6 6 5 6 7 10 10 11 11 12 12 13
13 14 13 14 14 14 13 12 11 10 11 12 9 11 12 9 12 13 11 14 12 11 10 9 8 9 7 5 4 4 4 4 5 5 5 6 6 8 10 12 11 12 12 13